Погода в Глодневе

Россия / Брянская область     52°38′36″N   34°49′08″E
темп.,
°C
ветер,
м/с
пор.,
м/с
влажн.,
%
обл.,
%
осадки,
мм/ч
давл.,
гПа
погр.,
м
20 сентября, пн
пн2000:00+8всв369883 0.0 1008191
03:00+9вюв3697100 0.0 1007338
06:00+10в4998100 1.6 1005240
09:00+11вюв4998100 3.6 1006522
12:00+10ююз369195 2.4 1007421
15:00+11ююз4577100 2.5 1007845
18:00+8ю2589100 0.0 1008306
21:00+8ююв3592100 0.1 1009281
21 сентября, вт
вт2100:00+8юв3693100 0.0 1009328
03:00+7юв4796100 0.9 1009473
06:00+7ююз4797100 1.3 1009413
09:00+6ююз4695100 1.6 1010489
12:00+6ююз4793100 0.1 1010574
15:00+6ююз4693100 0.8 1011534
18:00+5ю3594100 0.6 1011483
21:00+5ююв2495100 1.0 1012287
22 сентября, ср
ср2200:00+5юв2395100 0.2 1011243
03:00+5всв1294100 0.3 1011213
06:00+5св2395100 0.1 1011254
09:00+6ссв2392100 0.2 1011256
12:00+6ссз2292100 0.3 1012271
15:00+6з2394100 0.7 1012207
18:00+6ююз2396100 0.4 1012177
21:00+6ю2495100 0.9 1013215
23 сентября, чт
чт2300:00+6ююв2495100 0.5 1013185
03:00+6юв2496100 1.1 1012211
06:00+6юв2596100 1.0 1012304
09:00+6ю3596100 1.8 1012494
12:00+7ююв4492100 0.1 1012449
15:00+9ю3381100 0.6 1011823
18:00+7з359372 0.8 1012244
21:00+6зюз369196 1.1 1012290
24 сентября, пт
пт2400:00+6юз3793100 0.1 1011432
03:00+5ююз51092100 0.1 1010533
06:00+5ю51192100 0.0 1009529
09:00+7ю7138641 0.0 1006722
12:00+9ю91475100 0.0 10031072
15:00+7ю91393100 3.8 10011101
18:00+7ююз71495100 3.9 999729
21:00+9зюз71295100 6.8 999782